Malaga, OH (43757)

09:19 PM EDT die 20o September, anno 2017 (GMT -0400)
Jerusalem | | Change Station

Elev 1253 ft 39.86 °N, 81.11 °W | Updated 12 seconds ago

Serena
Serena
66.7 °F
Feels Like 66.7 °F
N
0.0
Ventus Variabilis Ventus from Magis Eurus quam Aquilo
Gusts 0.0 mph

Hodie
High -- | Low -- °F
--% Chance of Precip.
Yesterday
High -- | Low -- °F
Precip. -- in
Pressio 30.03 in
Visibilitas 10.0 milia passuum
Clouds Serena
Frigus in quo Ros apparet 65 °F
Umor 94%
Rainfall 0.00 in
Snow Depth Not available.
7:10 AM 7:24 PM
New, 1% visible
METAR KHLG 210053Z 00000KT 10SM CLR 22/17 A3004 RMK AO2 SLP169 T02220172
Pressio 30.03 in
Visibilitas 10.0 milia passuum
Clouds Serena
Frigus in quo Ros apparet 65 °F
Umor 94%
Rainfall 0.00 in
Snow Depth Not available.
7:10 AM 7:24 PM
New, 1% visible
METAR KHLG 210053Z 00000KT 10SM CLR 22/17 A3004 RMK AO2 SLP169 T02220172

Get Severe Weather Alerts

Thanks for signing up!

Be on the lookout for a verification email in your inbox.

You'll start receiving the daily forecast at 6 AM.

×

10-Day Weather Forecast

Almanac

Astronomy

Sep. 20, 2017 Rise Set
Actual Time
Civil Twilight
Nautical Twilight
Astronomical Twilight
Moon
Length Of Visible Light
Length of Day
Tomorrow will be .
, % of the Moon is Illuminated

Today's Extremes

State Highs State Lows

Community

WunderPhotos

Category 6

Welcome to Category 6. This is the collective home for Weather Underground's featured writeups by Dr. Jeff Masters (right), Bob Henson (left), Chris Burt, and other regular contributors.

Nearby

Air Quality

  Air Quality AQ Index Pollutant
Not available.

Snow Depth

Station Depth Elevation

Earthquake Activity

City Distance Mag. Time & Date
Minimum magnitude displayed is 2.5.

Coastal Water Temperatures

Locus Calor

Stations

Nearby Weather Stations

Station Location Temp Frigus Venti Frigus in quo Ros apparet Umor Ventus Precip. Elev Renovata Type
                   

Watches & Warnings

There are currently no watches in effect.